Location: Bullfrog
(37.5121°N, 110.7330°W)
Time: 14:29:40
(UTC-06:00)

N. Korean satellite - Pass Details

Date: 01 October 2021
Orbit: 450 x 494 km, 97.3° (Epoch: 28 October)

Event Time Altitude Azimuth Distance (km) Brightness Sun altitude
Rises 05:42:34 0° 32° (NNE) 2,554 10.9 -19.8°
Reaches altitude 10° 05:45:18 10° 55° (NE) 1,676 10.3 -19.3°
Maximum altitude 05:47:33 16° 94° (E) 1,358 9.8 -18.8°
Drops below altitude 10° 05:49:49 10° 133° (SE) 1,679 9.8 -18.4°
Sets 05:52:32 0° 156° (SSE) 2,560 10.4 -17.9°
